Wetbulb
63.42 64.94 65.06 64.59 64.82 65.67 65.60 65.79 66.06 67.17 67.04 66.54 67.43 68.40 68.97 69.60 70.89 71.30 71.70 70.69 69.76 70.24 70.51 69.58 68.97 69.77 69.76 68.62 68.04 67.83 66.18 65.99 64.22 65.05 67.77 68.56 68.27 70.42 71.55 72.56 70.31 70.70 67.06
61.00 62.03 62.03 63.25 63.89 64.53 64.25 65.00 65.49 65.84 66.00 65.63 65.78 65.82 66.20 67.19 68.75 68.67 68.43 68.66 68.38 68.00 67.86 66.89 66.12 65.94 67.94 68.84 67.88 68.35 67.46 67.59 66.08 63.97 65.10 65.50 68.04 70.91 70.96 69.48 69.25 69.97 71.02
58.95 60.48 60.84 62.09 63.35 64.24 64.26 64.71 64.85 64.64 64.75 65.06 64.89 64.87 64.85 64.79 65.15 65.28 64.54 64.56 64.88 64.58 64.28 63.63 63.45 63.95 64.82 65.12 66.31 66.23 66.94 67.06 67.11 65.96 62.61 64.91 66.80 69.72 68.52 69.15 69.48 69.32 70.03
57.01 57.68 58.67 61.27 62.52 63.09 64.43 64.79 64.34 63.96 63.33 63.42 63.58 63.31 63.44 63.91 63.87 64.04 63.84 64.15 64.00 63.42 63.18 63.28 62.45 62.51 63.31 64.53 64.67 64.97 65.76 66.03 67.27 66.87 66.70 66.60 67.85 68.52 66.81 65.07 65.32 67.88 67.88
55.39 55.95 56.80 57.78 60.11 62.00 62.90 63.94 63.98 63.67 62.96 62.82 62.67 62.45 62.85 63.24 62.63 62.60 62.36 62.04 62.03 60.92 61.02 60.51 61.77 61.11 58.85 60.31 62.04 63.90 63.92 63.02 63.83 64.34 65.71 67.30 65.62 64.94 63.52 65.93 66.50 67.50 67.47
53.87 53.10 56.02 56.61 57.04 58.19 60.53 62.54 63.54 63.24 62.93 62.18 61.52 61.58 62.54 61.34 49.44 52.43 58.87 60.96 60.59 59.47 59.42 60.33 61.86 59.90 58.87 55.07 55.30 54.69 58.19 62.69 64.47 64.02 64.81 65.26 66.93 66.34 66.21 66.12 65.77 66.55 64.73
53.98 52.61 53.72 54.49 55.75 56.50 57.51 59.21 61.23 63.00 64.40 63.44 62.72 61.96 62.28 62.35 46.96 47.58 49.38 60.29 59.98 60.03 60.39 61.32 61.92 61.43 60.08 63.47 56.41 52.89 53.51 52.05 55.02 65.95 65.81 67.36 67.85 68.97 69.10 66.87 66.42 66.53 66.33
52.83 53.61 53.00 51.25 52.06 53.19 55.87 56.27 58.95 61.10 63.09 64.08 63.77 63.21 62.89 61.51 45.71 45.29 47.65 59.77 60.08 60.16 60.31 60.95 62.17 63.19 63.69 62.63 62.55 63.71 64.73 66.03 66.02 63.73 66.05 67.49 69.59 70.92 69.32 68.61 67.95 68.70 69.62
50.32 52.45 53.53 52.65 52.25 52.00 52.02 53.89 57.43 59.40 60.67 61.46 62.50 62.53 62.35 61.79 45.50 44.61 50.19 58.63 59.10 59.51 59.86 60.10 60.59 61.79 54.60 48.81 63.39 62.33 62.90 64.11 58.32 51.86 51.71 48.96 49.68 50.77 57.79 66.25 65.25 66.61 65.36
47.79 48.99 52.70 53.44 53.36 53.69 56.46 56.10 56.62 58.57 58.86 59.68 60.18 62.12 57.55 61.78 44.49 43.58 49.80 57.33 58.14 57.77 59.81 60.01 50.92 56.88 50.65 43.16 62.72 61.47 60.44 62.11 64.77 66.98 62.47 57.06 58.19 58.79 51.32 67.28 69.23 66.78 64.47
45.64 48.86 47.93 49.22 51.50 54.19 56.71 57.98 58.07 57.04 57.94 59.46 59.96 61.55 60.71 59.95 57.69 43.06 43.74 57.50 56.92 57.02 57.16 57.50 58.98 45.88 44.07 42.80 44.34 60.74 59.78 59.66 60.97 63.81 63.63 64.66 64.10 63.24 64.19 66.18 69.81 69.46 65.03
42.21 43.03 45.66 48.22 50.15 51.75 55.70 56.05 56.43 57.73 57.11 58.16 58.58 58.66 58.69 60.74 50.88 43.70 42.39 44.43 50.91 56.78 56.44 57.29 57.78 42.86 42.93 42.43 46.95 47.58 42.61 46.82 60.62 62.63 62.91 62.01 62.34 63.22 65.13 66.68 68.63 69.15 69.02
41.10 41.55 41.73 44.75 46.51 48.99 50.57 53.48 53.96 56.11 55.36 55.07 54.80 55.76 57.08 58.17 59.20 45.28 42.45 42.09 42.85 53.12 56.63 53.36 43.89 43.65 44.25 47.56 44.73 42.24 42.04 57.57 62.73 62.20 62.71 62.56 63.15 65.35 65.23 65.88 67.29 67.25 66.95
40.27 40.58 41.38 42.91 43.97 44.76 47.15 49.85 50.68 52.57 53.64 54.19 54.90 54.96 55.84 56.96 57.77 58.25 54.69 52.99 44.19 48.63 50.41 54.04 52.37 48.82 43.90 49.76 52.95 55.75 59.88 62.48 63.11 63.22 62.78 64.16 64.56 63.13 63.46 64.82 65.49 66.72 64.38
40.84 41.06 40.89 41.66 43.20 43.99 45.06 45.56 49.09 52.83 53.11 54.24 55.16 55.66 55.56 55.13 56.36 53.56 54.00 56.58 57.28 54.34 53.99 56.82 56.63 57.61 58.22 59.31 60.04 60.43 61.48 62.99 62.84 63.64 62.92 62.24 62.28 62.89 63.36 64.73 65.71 64.95 63.67
40.58 39.55 41.02 41.33 42.22 43.94 44.60 45.23 43.48 43.84 42.97 42.31 42.11 49.45 55.81 48.66 43.92 43.41 44.13 43.76 41.31 41.57 54.55 55.71 55.78 57.17 58.11 58.52 59.19 58.51 60.32 59.01 62.69 62.03 62.28 62.78 61.92 62.01 62.22 63.84 65.32 63.55 62.35
40.22 40.61 40.92 41.65 43.13 42.85 44.47 43.22 44.62 44.75 41.69 41.04 41.62 41.95 43.11 43.76 41.66 41.80 42.15 40.07 38.78 42.72 53.91 54.95 55.82 57.27 58.45 59.03 59.08 58.44 59.30 61.53 63.03 63.32 64.37 63.33 62.22 62.68 61.43 62.88 62.51 62.93 61.79
43.08 40.93 42.92 43.01 44.36 44.78 44.49 45.71 45.78 44.93 47.39 49.39 41.13 44.26 41.00 39.09 39.53 39.43 39.09 41.05 48.10 46.17 54.25 54.74 56.06 57.59 58.69 59.03 58.48 60.69 59.74 61.17 63.26 64.00 64.07 63.57 63.10 63.11 61.97 61.96 61.99 62.18 62.05
43.29 44.63 46.04 45.56 45.91 45.89 46.33 46.69 46.67 46.47 47.17 48.64 50.93 42.93 42.23 38.68 38.51 38.28 39.65 53.27 53.56 54.18 54.95 56.13 56.61 58.54 59.77 59.79 61.87 59.97 61.09 61.09 61.61 64.15 64.08 62.61 63.14 62.97 62.29 62.41 62.35 52.03 55.33
48.88 42.45 44.51 46.86 46.27 46.26 46.06 45.38 45.47 46.83 48.03 48.88 49.13 50.34 51.22 45.94 47.60 47.58 49.58 53.58 55.04 55.79 57.05 56.90 58.45 59.02 59.09 61.47 60.96 60.91 61.66 60.47 64.03 64.05 63.52 64.26 64.08 63.99 63.32 62.89 62.10 61.22 61.65
48.68 49.04 43.43 48.26 48.15 48.94 48.64 48.56 48.70 49.12 49.08 49.36 49.39 50.48 42.82 51.09 51.37 52.29 52.78 53.84 54.73 55.94 57.40 58.06 58.92 58.98 60.11 62.09 60.83 62.88 63.26 63.25 63.92 63.23 63.25 63.51 64.05 63.15 63.23 62.02 60.88 61.82 62.24
48.61 48.80 48.45 48.35 48.80 48.76 49.09 49.78 50.02 50.35 50.66 51.65 51.22 49.21 37.51 52.76 53.08 54.26 54.89 55.35 56.19 57.36 58.37 59.20 59.65 60.11 61.53 60.27 62.29 63.42 63.53 62.69 63.70 63.67 64.27 63.99 64.05 63.16 62.40 62.12 62.34 62.62 60.79
51.18 50.97 50.23 50.26 50.13 46.43 51.01 52.33 51.92 51.73 50.56 51.49 52.10 52.22 51.47 51.33 53.59 55.17 55.94 56.63 57.31 57.93 58.79 60.00 61.29 60.79 60.42 61.09 64.70 65.04 63.59 64.07 64.88 65.06 64.62 63.57 62.39 62.34 63.16 62.47 61.92 60.05 59.50
51.08 52.16 51.49 51.58 52.41 53.36 52.83 53.64 54.23 48.77 54.03 55.14 54.91 53.42 52.66 52.76 52.88 56.20 57.50 57.77 58.65 59.45 60.20 61.46 60.89 60.15 60.96 62.68 64.16 63.54 65.14 65.72 65.35 65.67 65.36 64.08 63.35 60.61 62.58 61.88 60.15 55.82 52.33
48.57 51.14 53.10 53.72 53.78 54.69 54.77 53.87 53.40 54.16 54.33 54.02 53.79 54.89 56.68 55.21 54.81 57.26 58.32 59.22 59.95 60.58 60.03 59.56 60.02 61.28 62.18 63.54 63.67 64.39 51.15 42.30 62.03 54.98 64.64 64.17 62.69 61.74 59.55 55.24 52.85 51.51 50.54
43.37 46.83 49.24 50.97 52.64 53.94 54.28 54.40 53.85 52.17 51.21 50.67 51.07 53.94 54.43 54.87 57.11 58.52 58.63 59.90 58.66 58.53 59.87 60.69 62.08 61.09 62.98 63.39 63.72 45.99 40.44 41.94 55.39 45.55 61.46 57.48 55.32 54.87 52.52 51.35 50.56 50.18 48.12
MSLP
1000.29 1000.36 1000.37 1000.22 1000.20 1000.36 1000.63 1001.10 1001.56 1002.04 1002.57 1002.92 1003.28 1003.74 1004.17 1004.56 1004.92 1005.36 1005.71 1006.07 1006.58 1007.07 1007.46 1007.64 1007.91 1008.22 1008.35 1008.05 1007.80 1007.75 1007.62 1007.26 1007.05 1007.28 1007.90 1007.40 1007.24 1007.06 1006.62 1006.42 1006.67 1006.39 1006.55
1000.78 1000.76 1000.63 1000.49 1000.21 1000.39 1000.62 1000.78 1001.50 1001.84 1002.21 1002.58 1003.07 1003.41 1003.60 1004.08 1004.60 1005.07 1005.14 1005.22 1005.90 1006.16 1006.48 1006.77 1006.96 1007.07 1007.50 1007.81 1007.51 1007.48 1007.21 1006.92 1007.18 1007.08 1007.21 1006.45 1006.64 1006.53 1006.69 1006.86 1006.42 1005.43 1005.05
1001.17 1000.48 1000.73 1000.60 1000.51 1000.33 1001.12 1000.79 1001.14 1001.64 1001.72 1002.12 1002.74 1003.10 1003.21 1003.72 1004.39 1004.74 1004.91 1005.20 1005.53 1006.00 1006.25 1006.61 1006.89 1007.10 1007.21 1007.01 1006.98 1006.76 1006.84 1006.82 1006.97 1006.95 1006.78 1006.49 1006.32 1006.22 1006.26 1006.40 1006.13 1005.49 1005.30
1001.40 1000.96 1000.71 1000.40 1000.46 1000.55 1000.69 1000.89 1000.92 1001.03 1001.35 1001.77 1002.28 1002.63 1002.74 1003.29 1003.96 1004.41 1004.89 1005.31 1005.71 1006.06 1006.51 1006.84 1006.82 1006.75 1006.87 1006.82 1006.76 1006.69 1006.44 1006.20 1006.17 1006.15 1006.10 1006.28 1006.20 1006.03 1006.07 1005.83 1005.74 1005.20 1005.22
1001.66 1001.10 1001.05 1001.02 1000.69 1000.35 1000.55 1000.73 1000.61 1000.76 1001.09 1001.37 1001.82 1002.18 1002.42 1002.92 1003.44 1004.10 1004.73 1005.35 1005.69 1005.91 1006.17 1006.31 1006.30 1006.48 1006.57 1006.56 1006.42 1006.34 1006.38 1006.20 1005.50 1005.06 1005.51 1005.50 1005.71 1005.82 1005.56 1004.99 1004.86 1004.66 1004.98
1001.23 1001.11 1001.01 1000.80 1000.68 1000.66 1000.52 1000.46 1000.66 1000.58 1000.80 1000.77 1001.23 1001.69 1002.04 1002.50 1003.30 1004.26 1004.72 1005.03 1005.37 1005.66 1005.87 1005.98 1006.07 1006.12 1006.17 1006.38 1006.49 1006.54 1006.60 1006.51 1005.91 1005.11 1005.08 1004.89 1004.73 1005.00 1004.84 1004.49 1004.55 1004.30 1004.29
1000.44 1000.55 1000.83 1000.37 1000.51 1000.37 1000.19 1000.37 1000.27 1000.37 1000.49 1000.61 1000.96 1001.22 1001.70 1002.31 1003.28 1004.22 1004.98 1004.91 1005.21 1005.45 1005.66 1005.79 1005.66 1005.07 1005.41 1005.43 1005.52 1005.58 1005.63 1005.58 1005.71 1005.32 1004.85 1004.42 1003.94 1003.78 1003.73 1004.34 1004.13 1004.12 1003.39
999.40 999.13 999.16 999.55 999.84 1000.25 1000.38 1000.29 1000.38 1000.19 1000.33 1000.38 1000.69 1001.05 1001.39 1002.05 1003.29 1004.09 1004.75 1004.66 1004.90 1005.10 1005.30 1005.41 1005.33 1005.13 1005.07 1005.15 1005.01 1004.74 1004.42 1004.15 1004.21 1004.75 1004.52 1004.07 1003.74 1003.36 1003.37 1003.73 1003.73 1003.85 1003.68
998.91 998.10 998.05 998.24 998.51 999.28 1000.26 1000.18 1000.28 1000.26 1000.13 1000.26 1000.25 1000.61 1001.08 1001.81 1002.85 1003.81 1004.37 1004.09 1004.30 1004.63 1004.78 1004.76 1004.71 1004.55 1004.67 1005.03 1005.05 1004.66 1004.16 1003.68 1003.35 1003.44 1003.51 1003.68 1003.81 1003.54 1003.44 1003.92 1003.55 1003.48 1003.25
998.30 998.15 997.28 997.20 997.37 997.51 997.92 998.81 999.50 999.58 999.45 999.66 999.87 1000.08 1000.56 1001.17 1002.47 1003.25 1003.65 1003.14 1003.59 1003.98 1004.20 1004.18 1004.22 1004.33 1004.43 1004.97 1005.00 1004.64 1003.91 1003.37 1002.97 1002.73 1003.44 1003.49 1003.47 1003.50 1003.74 1003.65 1003.32 1003.00 1002.85
998.07 997.35 997.25 997.22 996.92 996.63 997.09 997.37 997.91 998.28 998.56 999.38 999.24 999.27 999.89 1000.56 1001.32 1002.66 1003.12 1002.77 1002.87 1003.17 1003.28 1003.23 1003.01 1003.52 1004.25 1004.98 1005.30 1004.70 1004.26 1003.94 1003.64 1003.16 1003.02 1002.89 1003.34 1003.73 1003.71 1003.53 1003.21 1002.73 1002.47
997.23 997.16 996.76 996.37 996.29 996.02 995.88 996.23 996.74 997.20 997.63 997.97 998.24 998.48 999.18 999.60 1000.68 1002.07 1002.77 1002.69 1002.71 1003.01 1003.11 1003.09 1003.06 1004.05 1004.49 1004.69 1004.92 1004.22 1004.17 1004.25 1003.59 1003.05 1002.94 1003.04 1003.25 1003.30 1003.27 1002.83 1003.09 1003.01 1002.93
995.61 995.52 995.87 995.79 995.86 995.52 995.36 995.26 995.82 996.35 996.35 996.61 996.93 997.48 998.05 998.58 999.37 1001.10 1002.17 1002.55 1002.71 1002.97 1002.70 1002.69 1003.31 1003.68 1003.70 1003.71 1003.59 1003.83 1003.80 1003.47 1002.87 1002.76 1002.60 1002.72 1002.63 1002.43 1002.55 1002.79 1003.06 1003.09 1003.14
993.59 993.85 994.19 994.29 994.63 995.09 995.00 994.51 994.90 994.92 995.22 995.27 995.68 996.23 996.95 997.51 998.29 999.32 1001.22 1002.11 1002.86 1003.20 1002.98 1002.69 1002.58 1003.00 1003.39 1003.29 1003.10 1002.52 1002.74 1002.46 1002.23 1002.11 1002.14 1002.15 1001.86 1002.67 1002.86 1002.49 1002.82 1002.92 1003.02
991.85 991.84 992.46 993.04 993.43 993.89 994.47 994.72 994.23 994.36 994.36 994.62 994.84 995.35 995.93 996.47 997.17 998.14 999.18 1000.26 1000.60 1001.03 1001.70 1001.59 1001.44 1001.58 1001.35 1001.09 1001.31 1001.69 1001.93 1001.87 1001.84 1001.93 1002.00 1002.24 1002.10 1001.77 1002.17 1002.18 1002.44 1002.72 1002.88
989.88 989.79 990.88 991.89 992.61 993.10 993.71 994.25 994.85 994.45 994.56 994.78 995.24 995.42 995.67 996.04 997.13 997.99 998.88 999.63 1000.52 1000.99 1001.33 1000.58 1000.31 1000.13 999.93 999.75 1000.41 1001.25 1001.45 1001.43 1001.37 1001.62 1001.72 1001.71 1001.71 1001.72 1001.84 1002.11 1002.27 1002.47 1002.75
990.12 990.05 990.70 991.49 991.89 992.53 993.03 993.67 993.82 994.33 994.51 994.79 995.37 996.11 996.26 997.00 997.45 998.27 998.90 999.98 1001.00 1001.48 1000.85 1000.00 999.65 999.12 999.03 999.26 1000.10 1000.73 1000.85 1000.87 1000.95 1000.98 1000.82 1001.04 1001.19 1001.43 1001.74 1001.55 1001.97 1002.28 1002.66
990.60 990.81 990.98 991.30 991.51 992.14 992.59 992.82 993.62 994.06 994.03 994.64 995.45 996.14 996.96 997.76 998.23 998.95 999.71 1000.38 1001.29 1001.28 1000.05 999.50 998.82 998.38 998.35 998.57 999.58 999.84 1000.34 1000.29 1000.32 1000.14 1000.30 1000.25 1000.79 1000.67 1000.90 1001.19 1001.63 1002.08 1002.27
990.78 990.99 990.94 991.32 991.71 992.06 992.50 992.89 993.47 993.81 993.61 993.83 994.38 996.15 997.27 998.00 998.63 999.35 999.72 999.39 999.05 998.85 999.13 998.62 998.07 997.65 997.54 998.26 998.75 999.21 999.66 999.83 999.90 999.85 999.91 1000.02 1000.36 1000.27 1000.71 1001.18 1001.52 1001.90 1001.89
990.37 991.33 991.38 991.49 991.74 992.08 992.47 992.88 993.29 993.40 993.41 993.49 993.87 994.34 995.62 997.53 998.09 998.68 998.89 998.45 997.76 997.21 996.91 997.18 997.01 997.35 997.49 997.55 998.23 998.76 998.82 999.19 999.08 999.28 999.61 1000.01 1000.34 1000.54 1000.69 1000.92 1001.35 1001.80 1001.92
990.52 990.98 991.41 991.21 991.43 991.66 991.91 992.16 992.41 992.66 992.85 993.06 993.37 993.88 994.48 995.28 995.67 996.08 996.59 996.85 996.80 996.54 996.25 996.02 996.21 996.70 996.98 997.36 997.95 997.85 997.78 998.12 998.35 998.98 999.42 999.95 1000.17 1000.28 1000.69 1001.53 1001.93 1001.95 1002.18
991.04 990.96 991.15 991.17 991.43 991.62 991.70 991.81 992.01 992.11 992.16 992.20 992.93 993.81 994.43 994.54 994.18 994.38 994.73 995.22 995.54 995.59 995.51 995.46 995.51 996.17 996.83 997.37 997.33 997.08 997.36 997.72 998.01 998.68 999.19 999.46 999.62 1000.16 1000.79 1001.31 1001.54 1002.26 1003.03
990.82 990.68 990.76 990.83 990.97 991.19 991.16 991.16 991.21 991.32 991.64 991.83 992.27 992.82 993.79 994.09 993.82 993.02 993.25 993.83 994.51 994.77 994.53 994.64 995.53 996.54 996.89 997.07 996.61 996.73 996.80 996.82 997.47 998.43 998.61 998.93 999.39 999.91 1000.47 1001.15 1001.76 1002.99 1003.64
991.73 990.94 990.71 990.54 990.37 990.30 990.46 990.27 990.48 990.91 991.01 991.11 991.43 992.13 992.78 993.14 993.53 993.07 992.34 992.81 993.18 993.68 994.27 995.01 995.77 996.24 996.49 996.55 996.32 996.44 996.47 996.99 997.26 998.07 998.46 998.74 999.47 1000.41 1001.04 1001.73 1002.64 1003.80 1004.76
992.36 991.95 991.21 990.70 990.56 990.30 990.40 990.62 990.64 990.77 990.68 990.96 991.25 991.54 991.69 992.27 992.85 992.80 992.44 992.79 993.27 993.84 994.70 995.29 995.60 995.73 996.06 995.55 995.67 995.85 996.67 997.14 997.25 998.07 998.59 999.23 1000.14 1001.04 1001.84 1002.84 1003.65 1004.54 1005.30
993.51 992.87 992.26 991.69 991.45 991.16 990.94 991.00 991.07 991.18 991.19 991.22 991.16 991.31 991.70 992.02 992.24 992.27 992.62 992.93 993.44 994.06 994.47 994.82 995.14 995.52 995.33 995.38 995.80 996.65 997.32 997.79 998.27 998.73 999.78 1000.88 1001.27 1001.93 1002.82 1003.53 1004.31 1005.02 1005.73
Wind_Speed
8 11 12 11 13 12 11 11 10 10 10 10 11 10 10 11 12 11 11 12 14 13 13 14 14 13 8 10 9 9 9 7 7 9 6 4 8 9 11 8 6 6 6
7 6 7 6 8 9 11 12 12 12 12 11 11 11 12 11 10 11 11 11 11 10 8 7 7 6 8 9 8 8 9 6 8 12 5 4 5 8 9 10 6 5 2
9 7 7 8 9 10 12 12 13 13 12 13 13 13 13 12 12 11 10 9 8 7 6 6 6 7 7 7 7 8 8 7 9 10 10 3 7 3 7 8 7 4 2
8 6 6 9 11 10 12 12 13 13 14 14 13 14 13 13 13 12 10 9 7 6 4 6 8 9 9 9 9 9 9 10 11 10 9 8 6 5 6 6 6 6 6
11 8 6 5 7 10 12 14 14 14 14 16 15 14 13 12 10 11 9 8 6 4 5 7 9 10 9 9 8 8 9 10 11 10 9 7 4 5 6 6 9 6 8
13 12 14 10 7 6 11 13 12 13 16 16 16 16 15 11 14 9 7 7 5 5 5 7 9 10 11 12 12 13 13 12 14 12 10 11 11 8 9 8 8 7 8
18 15 17 12 12 10 7 12 15 15 14 15 16 17 17 15 16 14 9 8 6 5 6 7 9 8 9 10 12 15 16 17 19 14 14 13 13 11 9 10 10 9 8
21 20 17 12 13 10 12 11 13 13 13 14 16 16 15 13 15 14 12 9 7 7 7 8 10 10 11 10 11 11 12 12 11 10 13 15 13 10 9 9 7 9 5
22 23 20 17 16 15 14 11 10 11 12 14 15 17 16 15 18 16 13 10 9 8 7 9 11 12 10 6 10 11 12 12 5 3 6 4 9 5 2 4 7 8 6
21 19 19 20 20 20 19 21 17 14 14 14 16 17 17 16 16 16 14 9 8 7 7 9 12 14 10 2 8 10 13 13 13 10 6 4 5 1 5 10 6 8 4
20 21 21 20 20 21 18 16 17 16 15 16 17 15 17 16 16 17 16 11 8 7 7 7 8 10 7 4 4 8 12 12 13 5 5 3 4 3 4 8 8 5 5
18 20 21 18 17 15 20 18 18 17 17 15 16 14 15 14 12 17 16 14 9 8 8 9 9 9 6 3 6 9 10 9 7 5 4 3 4 6 5 6 5 4 3
17 19 20 19 20 18 17 20 17 17 17 17 15 15 14 14 13 13 17 14 10 9 9 9 2 4 6 9 14 10 6 6 6 5 6 6 7 6 7 4 5 5 6
19 18 16 17 18 18 11 14 14 17 17 16 16 16 15 14 13 12 11 9 7 8 10 11 11 5 8 10 9 8 6 7 7 7 6 5 5 6 6 7 7 7 6
12 15 15 13 14 14 15 10 12 16 16 16 16 16 15 15 15 14 13 13 12 12 11 10 10 10 11 11 7 7 6 6 7 6 5 4 5 7 7 6 5 6 7
12 13 11 10 10 11 11 12 22 12 13 9 4 8 15 5 12 16 12 6 7 8 10 9 11 11 11 10 6 7 6 6 6 5 7 8 8 8 8 6 7 6 5
5 7 7 9 8 11 10 14 12 7 3 8 9 4 5 4 15 12 12 8 10 6 10 11 12 12 11 9 8 8 6 7 8 10 9 8 8 9 8 8 7 6 6
6 5 6 5 8 9 6 8 10 11 15 13 4 9 8 12 11 12 13 9 5 6 11 12 13 12 11 8 7 8 6 7 10 7 9 8 7 9 9 6 7 6 7
5 4 4 5 5 7 7 8 7 9 9 11 13 8 9 11 13 13 16 12 12 12 12 13 13 12 9 7 9 5 9 9 9 10 10 6 7 7 6 7 8 6 5
9 9 4 4 3 5 7 9 10 10 11 9 8 11 13 9 9 9 8 10 10 12 12 14 13 11 10 8 6 7 9 8 11 9 7 7 8 7 8 8 8 8 6
4 6 4 4 5 5 6 6 7 7 7 8 7 8 11 13 13 14 13 13 13 13 11 9 10 10 9 7 7 10 11 11 11 8 8 8 9 9 9 8 8 6 11
1 3 3 4 4 5 5 5 6 9 10 10 9 8 11 12 13 14 15 14 13 13 12 12 8 7 8 7 11 10 10 10 11 8 9 10 10 9 9 10 9 8 9
1 5 6 4 4 4 7 8 8 7 8 10 10 10 12 10 9 11 13 12 13 13 13 8 7 7 7 8 11 10 10 11 11 10 11 11 11 10 9 9 9 10 9
6 2 2 3 4 4 5 6 5 2 4 8 11 9 10 11 10 12 10 11 11 10 8 7 7 11 11 11 10 10 9 10 10 12 14 11 10 9 9 10 11 12 11
5 5 6 4 4 1 3 2 4 4 4 6 7 6 9 10 10 11 7 7 8 8 8 8 7 9 13 18 12 11 10 7 12 11 10 11 13 13 12 11 12 11 13
12 11 8 5 4 3 1 3 6 5 4 3 3 6 8 9 10 9 8 9 7 8 11 8 10 10 14 11 13 12 12 11 12 10 13 12 12 12 11 14 16 12 12
Wind_Direction
244 229 216 199 196 186 185 188 186 181 187 190 193 192 197 206 212 209 214 221 218 219 216 220 227 225 225 235 241 253 261 257 260 276 245 252 272 273 290 293 266 237 160
213 228 227 227 201 189 192 184 188 185 184 187 188 191 189 188 185 196 195 177 193 193 190 203 218 223 221 234 244 252 271 273 256 260 275 244 242 275 292 287 255 227 213
321 281 221 219 209 199 214 192 192 194 185 188 189 190 182 175 175 180 181 176 181 192 200 215 233 236 242 265 272 270 256 259 250 251 268 296 278 255 289 284 266 234 231
309 326 299 257 219 216 217 212 202 198 193 191 191 195 187 180 183 182 182 179 183 192 218 251 261 259 252 252 255 263 268 267 256 255 259 267 262 270 232 244 246 233 210
288 288 287 297 276 255 233 226 213 204 199 193 191 198 190 189 190 184 174 179 188 230 266 273 261 265 280 285 279 276 290 274 268 250 263 263 244 236 234 234 244 222 221
274 274 269 259 252 253 245 223 223 211 207 204 199 200 185 194 132 141 186 187 201 233 266 276 275 262 250 242 247 248 261 271 268 280 260 264 257 238 236 237 223 209 220
263 247 254 251 250 247 237 244 225 216 209 209 206 198 186 199 147 150 176 197 203 223 254 270 273 271 216 252 233 232 233 229 233 256 265 259 254 256 227 222 220 223 237
260 254 250 230 252 250 252 235 239 223 215 205 204 204 192 193 162 162 175 202 207 224 247 264 267 268 260 273 280 287 287 284 252 219 241 257 269 263 209 226 213 232 215
267 256 242 241 220 211 222 240 233 223 213 215 211 200 198 196 168 167 179 192 217 234 253 268 270 266 258 225 267 282 290 288 269 328 275 309 302 281 255 220 206 202 214
267 263 254 240 238 235 211 200 210 214 213 214 211 208 200 202 171 174 191 211 215 242 253 264 243 251 271 146 282 288 290 297 307 295 259 208 234 132 256 241 266 229 182
266 261 248 255 258 239 230 220 209 202 199 210 209 203 208 207 180 178 194 209 227 232 252 267 271 195 203 157 227 272 278 313 300 244 241 155 139 171 204 231 258 255 209
242 252 254 244 238 239 228 219 216 210 203 204 209 203 208 210 208 182 190 214 199 238 255 272 280 112 133 177 242 276 273 277 253 227 172 147 164 191 209 228 236 202 158
244 235 235 236 234 241 238 210 210 211 215 203 202 206 211 198 205 171 187 198 202 223 251 266 348 289 292 279 250 243 272 247 219 200 178 186 198 189 187 179 186 171 130
239 233 228 229 214 218 244 216 208 213 208 213 207 208 210 208 198 186 197 197 212 217 244 252 258 277 298 293 296 246 249 234 211 201 185 183 139 152 200 182 191 181 158
258 231 217 214 212 212 221 237 224 225 217 208 216 210 207 211 208 194 201 202 215 203 218 236 242 235 238 238 235 258 238 221 203 175 170 184 189 177 193 196 206 171 174
281 206 197 190 202 196 201 209 230 241 202 239 282 243 215 197 164 155 161 209 94 126 203 234 236 235 239 241 235 243 222 208 186 177 193 195 193 190 190 190 187 182 165
48 116 152 183 190 181 203 199 201 206 163 202 205 209 278 116 133 146 158 137 115 159 224 234 234 234 234 231 233 230 219 196 184 201 200 194 187 188 189 179 173 173 164
75 132 140 199 164 175 194 156 180 196 205 199 177 215 198 132 141 137 130 143 168 225 223 226 231 229 232 229 226 219 203 193 209 206 207 171 181 185 182 169 149 165 163
103 149 167 156 170 174 182 185 181 198 214 205 189 178 141 121 125 145 163 208 211 206 204 225 229 231 230 217 225 191 192 185 204 206 192 180 185 178 151 155 155 162 152
96 98 119 160 151 166 175 185 195 200 201 195 192 191 176 144 173 178 191 209 224 222 209 211 209 220 239 227 187 193 179 189 206 193 175 171 179 178 168 151 148 159 152
77 93 80 128 149 155 161 167 175 172 173 184 199 185 157 190 198 201 198 206 214 217 224 220 209 214 224 196 199 198 190 189 185 169 167 171 179 164 155 152 155 193 119
147 123 143 140 135 162 171 174 179 186 188 181 170 164 159 210 198 199 203 200 206 219 211 215 215 212 203 190 212 195 192 187 173 163 172 180 157 150 159 163 178 132 125
255 141 159 166 169 173 192 184 193 190 182 190 183 174 181 199 225 214 197 191 199 205 214 209 195 187 193 207 218 193 193 181 162 167 175 163 161 169 162 158 133 121 128
323 307 253 204 184 164 196 200 178 187 202 189 179 181 183 189 193 223 198 187 194 194 198 197 184 186 200 210 210 209 169 165 165 166 159 160 140 147 134 138 114 116 117
244 289 303 324 312 256 3 324 292 260 190 196 198 205 182 182 181 209 211 178 195 179 171 167 180 196 214 202 187 156 124 140 158 151 146 139 132 129 123 115 116 119 131
20 24 19 4 359 321 336 79 62 65 69 63 90 161 175 185 192 193 183 167 161 162 163 174 176 201 208 180 132 109 102 97 109 106 125 128 124 121 118 122 126 131 136